STARLINK-5027 (55370 NORAD) Tracking and Keplerian Element Data

This shows tracking and keplerian element data for the satellite.

Feedback or suggestion? Click here.




ElementValue
Catalog55370
NameSTARLINK-5027
Epoch Orbit1587
Epoch Day126.86450573
Epoch Year2023
RAAN192.5648
Inclination43.0006
Eccentricity0.0001438
Argument of Perigee274.3386
Mean Anonmoly85.7292
Mean Motion15.02545555
Decay Rate7.161E-05
L11 55370U 23013AR 23126.86450573 .00007161 00000+0 54451-3 0 9997
L22 55370 43.0006 192.5648 0001438 274.3386 85.7292 15.02545555 15870



Live tracking and technical data element details for STARLINK-5027 (NORAD 55370). STARLINK-5027 can be tracked NOW for your location showing map with azimuth and elevation plus other details from your city location.







IsCatalogInMostPopularTable: catalog: 55370, numindb: 1
Update: records affected: 1



GetName: 55370 STARLINK-5027

Hit Count: updated at: Sun, 28 May 2023 07:47:17 GMT